Weather History for Hawarden, United Kingdom

Change the Weather History Date:

Wednesday, September 19, 2012

  Actual Average (EGGP) Record (EGGP)
Temperature  
Mean Temperature 52 °F -  
Max Temperature 58 °F 58 °F 68 °F (1998)
Min Temperature 46 °F 47 °F 42 °F (2000)
Degree Days  
Heating Degree Days 13    
Growing Degree Days 2 (Base 50)    
Moisture  
Dew Point 46 °F    
Average Humidity 76    
Maximum Humidity 94    
Minimum Humidity 53    
Precipitation  
Precipitation 0.12 in - - ()
Sea Level Pressure  
Sea Level Pressure 30.16 in    
Wind  
Wind Speed 7 mph ()    
Max Wind Speed 15 mph    
Max Gust Speed 18 mph    
Visibility 8.4 miles    
Events Rain    
Averages and records for this station are not official NWS values.
T = Trace of Precipitation, MM = Missing Value Source: Averaged Metar Reports

Daily Weather History Graph

Daily Weather History Graph

Search for Another Location

Airport:

Trip Planner

Search our weather history database for the weather conditions in past years. The results will help you decide how hot, cold, wet, or windy it might be!

Date:

Astronomy

Sep. 19, 2012 Rise Set
Actual Time 6:53 AM BST 7:17 PM BST
Civil Twilight 6:18 AM BST 7:51 PM BST
Nautical Twilight 5:36 AM BST 8:32 PM BST
Astronomical Twilight 4:53 AM BST 9:16 PM BST
Moon 11:28 AM BST (9/19) 8:30 PM BST (9/19)
Length of Visible Light 13h 33m
Length of Day
12h 23m
Waxing Crescent, 15% of the Moon is Illuminated
Sep 19
Waxing Crescent
Sep 22
First Quarter
Sep 30
Full
Oct 8
Last Quarter
Oct 15
New

Hourly Weather History & Observations

Time (BST) Temp. Dew Point Humidity Pressure Visibility Wind Dir Wind Speed Gust Speed Precip Events Conditions
12:50 AM 48 °F 41 °F 69% 30.10 in 22 mi West 8.1 mph - - Rain Rain
3:50 AM 49 °F 42 °F 67% 30.11 in 14 mi West 9.2 mph - - Rain Rain
6:50 AM 48 °F 42 °F 72% 30.13 in 12 mi West 5.8 mph - - Rain Rain Showers
6:50 AM 48.2 °F 44.6 °F 87% 30.12 in 6.2 mi WNW 6.9 mph 18.4 mph N/A   Partly Cloudy
7:20 AM 48.2 °F 46.4 °F 93% 30.12 in 6.2 mi West 5.8 mph - N/A   Scattered Clouds
7:50 AM 50.0 °F 48.2 °F 94% 30.15 in 6.2 mi West 6.9 mph - N/A Rain Rain Showers
8:20 AM 48.2 °F 46.4 °F 93% 30.15 in 6.2 mi Variable 3.5 mph - N/A Rain Light Rain Showers
8:50 AM 50.0 °F 48.2 °F 94% 30.15 in 6.2 mi West 5.8 mph - N/A   Scattered Clouds
9:20 AM 50.0 °F 48.2 °F 94% 30.15 in 6.2 mi West 4.6 mph - N/A   Scattered Clouds
9:50 AM 53 °F 47 °F 72% 30.17 in 13 mi West 5.8 mph - - Rain Rain
9:50 AM 51.8 °F 50.0 °F 94% 30.15 in 6.2 mi West 10.4 mph - N/A   Partly Cloudy
10:20 AM 53.6 °F 48.2 °F 82% 30.15 in 6.2 mi West 12.7 mph - N/A   Scattered Clouds
10:50 AM 51.8 °F 48.2 °F 88% 30.18 in 6.2 mi West 11.5 mph - N/A   Scattered Clouds
11:20 AM 57.2 °F 50.0 °F 77% 30.18 in 6.2 mi West 13.8 mph - N/A   Scattered Clouds
11:50 AM 57.2 °F 48.2 °F 72% 30.18 in 6.2 mi WNW 15.0 mph - N/A   Scattered Clouds
12:50 PM 55 °F 43 °F 53% 30.19 in 19 mi WNW 12.7 mph - -   Scattered Clouds
12:50 PM 55.4 °F 46.4 °F 72% 30.18 in 6.2 mi NW 13.8 mph - N/A   Scattered Clouds
1:20 PM 57.2 °F 44.6 °F 63% 30.18 in 6.2 mi NW 12.7 mph - N/A   Scattered Clouds
1:50 PM 59.0 °F 44.6 °F 59% 30.18 in 6.2 mi WNW 9.2 mph - N/A   Scattered Clouds
2:20 PM 59.0 °F 46.4 °F 63% 30.18 in 6.2 mi WNW 9.2 mph - N/A   Partly Cloudy
3:50 PM 56 °F 45 °F 57% 30.19 in 18 mi West 8.1 mph - - Rain Rain Showers
6:50 PM 53 °F 43 °F 59% 30.18 in 25 mi SW 4.6 mph - -   Scattered Clouds
9:50 PM 50 °F 43 °F 68% 30.17 in 28 mi SSW 5.8 mph - -   Scattered Clouds